Location: Unspecified
(40.7945°N, 0.0000°E)
Time: 21:04:58
(UTC+00:00)

AIST 2D - Pass Details

Date: 26 July 2019
Orbit: 457 x 471 km, 97.2° (Epoch: 25 August)

Event Time Altitude Azimuth Distance (km) Brightness Sun altitude
Rises 22:43:46 0° 14° (NNE) 2,519 ? -26.9°
Reaches altitude 10° 22:45:50 10° 16° (NNE) 1,638 ? -27.0°
Enters shadow 22:47:20 24° 21° (NNE) 1,029 ? -27.1°
